Погода в Плотниково

Россия / Курганская область     54°43′20″N   65°03′54″E
темп.,
°C
ветер,
м/с
пор.,
м/с
влажн.,
%
обл.,
%
осадки,
мм/ч
давл.,
гПа
погр.,
м
7 марта, вс
вс723:00−14ююз47910 0.0 1013114
02:00−15юз349148 0.0 101440
05:00−14ююз239274 0.0 101428
08:00−13ююв2392100 0.0 101367
11:00−9юв3592100 0.1 1011316
14:00−7в5895100 1.8 1006448
17:00−6всв61095100 4.6 1002493
20:00−7с61095100 3.4 1000382
8 марта, пн
пн823:00−8ссз61192100 4.5 1001511
02:00−11сз6139187 0.0 1006385
05:00−16зсз489470 0.0 1009133
08:00−20зюз34963 0.0 101161
11:00−15юз47891 0.0 1013281
14:00−11ююз61085100 0.0 1013513
17:00−9ююз81586100 0.0 1011782
20:00−9ююз81687100 0.1 1011761
9 марта, вт
вт923:00−7ююз81590100 0.3 1011732
02:00−7юз81589100 0.1 1011611
05:00−7ююз71491100 0.1 1011488
08:00−8ююз81493100 0.4 1010570
11:00−7ююз91590100 0.5 1009691
14:00−5ююз91589100 0.1 1008789
17:00−4юз81390100 0.2 1008880
20:00−5юз61192100 0.1 1008517
10 марта, ср
ср1023:00−6ююз5995100 0.3 1008301
02:00−6ю4896100 0.8 1006310
05:00−7ю3796100 1.3 1004209
08:00−7ю4795100 0.2 1002246
11:00−5ююз4695100 0.8 1000403
14:00−3юз5795100 0.8 1000567
17:00−5юз5893100 0.9 999430
20:00−8зсз61193100 0.5 1001414
11 марта, чт
чт1123:00−9з5109499 0.7 1003357
02:00−12з51093100 0.2 1004408
05:00−17зюз51193100 0.3 1007285
08:00−19зюз599697 0.1 1010317
11:00−18з588699 0.2 1012483
14:00−17зюз68860 0.0 1013514
17:00−17зюз6108610 0.0 1014603
20:00−20юз6129144 0.0 1015269